This is the latest recevied weather packets stored in our database for station/object R6DH-11. If no packets are shown the sender has not sent any weather packets the latest 10 day(s).
| Time | Temp. | Humidity | Pressure | Rain* | Wind** | Luminosity | Snow |
|---|---|---|---|---|---|---|---|
| 1777964499 | 12.22° C | 65% | 1012.5 hPa | - | - | - | - |
| 1777963597 | 11.67° C | 68% | 1012.6 hPa | - | - | - | - |
| 1777962695 | 11.11° C | 70% | 1012.6 hPa | - | - | - | - |
| 1777961794 | 10.56° C | 72% | 1012.5 hPa | - | - | - | - |
| 1777960892 | 10.56° C | 70% | 1012.6 hPa | - | - | - | - |
| 1777959991 | 10° C | 73% | 1012.6 hPa | - | - | - | - |
| 1777959089 | 10° C | 72% | 1012.7 hPa | - | - | - | - |
| 1777958188 | 10° C | 72% | 1012.6 hPa | - | - | - | - |
| 1777957293 | 10° C | 72% | 1012.5 hPa | - | - | - | - |
| 1777956385 | 10° C | 73% | 1012.4 hPa | - | - | - | - |
| 1777955483 | 9.44° C | 72% | 1012.4 hPa | - | - | - | - |
| 1777954581 | 8.89° C | 72% | 1011.5 hPa | - | - | - | - |
| 1777928490 | 9.44° C | 72% | 1011.6 hPa | - | - | - | - |
| 1777927590 | 9.44° C | 73% | 1011.5 hPa | - | - | - | - |
| 1777926690 | 8.89° C | 75% | 1011.5 hPa | - | - | - | - |
| 1777925790 | 8.89° C | 76% | 1011.7 hPa | - | - | - | - |
| 1777924890 | 8.89° C | 77% | 1011.8 hPa | - | - | - | - |
| 1777923989 | 8.89° C | 77% | 1012.2 hPa | - | - | - | - |
| 1777923090 | 8.89° C | 77% | 1012.1 hPa | - | - | - | - |
| 1777922189 | 8.89° C | 77% | 1012.2 hPa | - | - | - | - |
| 1777921289 | 8.89° C | 79% | 1012.3 hPa | - | - | - | - |
| 1777920389 | 8.89° C | 79% | 1012.4 hPa | - | - | - | - |
| 1777919489 | 8.89° C | 79% | 1012.5 hPa | - | - | - | - |
| 1777918589 | 8.89° C | 79% | 1012.5 hPa | - | - | - | - |
| 1777917689 | 8.89° C | 80% | 1012.6 hPa | - | - | - | - |
* Rain since midnight (hover to see other rain measurements)
** Current wind speed in m/s (hover to see current wind gust speed)